Time,TemperatureF,DewpointF,PressureIn,WindDirection,WindDirectionDegrees,WindSpeedMPH,WindSpeedGustMPH,Humidity,HourlyPrecipIn,Conditions,Clouds,dailyrainin,SoftwareType,DateUTC
2013-11-05 00:01:00,26.1,19.2,30.71,SW,216,0.0,2.0,75,0.00,,,0.00,meteohub,2013-11-05 05:01:00,
2013-11-05 00:02:00,26.1,19.2,30.71,SW,216,0.0,2.0,75,0.00,,,0.00,meteohub,2013-11-05 05:02:00,
2013-11-05 00:07:00,26.1,19.8,30.71,SW,216,0.0,2.0,77,0.00,,,0.00,meteohub,2013-11-05 05:07:00,
2013-11-05 00:12:00,25.9,19.8,30.71,SW,216,1.0,2.0,77,0.00,,,0.00,meteohub,2013-11-05 05:12:00,
2013-11-05 00:17:00,26.1,19.8,30.71,SW,216,0.0,2.0,77,0.00,,,0.00,meteohub,2013-11-05 05:17:00,
2013-11-05 00:22:00,26.1,20.5,30.71,SW,216,0.0,2.0,79,0.00,,,0.00,meteohub,2013-11-05 05:22:00,
2013-11-05 00:27:00,25.9,20.3,30.71,SW,216,0.0,1.0,79,0.00,,,0.00,meteohub,2013-11-05 05:27:00,
2013-11-05 00:32:00,25.9,20.3,30.71,SW,216,0.0,1.0,79,0.00,,,0.00,meteohub,2013-11-05 05:32:00,
2013-11-05 00:37:00,25.9,20.5,30.70,SW,216,0.0,1.0,80,0.00,,,0.00,meteohub,2013-11-05 05:37:00,
2013-11-05 00:43:00,25.5,20.3,30.70,SW,216,0.0,1.0,80,0.00,,,0.00,meteohub,2013-11-05 05:43:00,
2013-11-05 00:48:00,25.5,19.9,30.70,SW,216,0.0,1.0,79,0.00,,,0.00,meteohub,2013-11-05 05:48:00,
2013-11-05 00:54:00,25.9,20.3,30.70,SW,216,0.0,1.0,79,0.00,,,0.00,meteohub,2013-11-05 05:54:00,
2013-11-05 00:59:00,25.9,19.9,30.70,SW,216,0.0,1.0,78,0.00,,,0.00,meteohub,2013-11-05 05:59:00,
2013-11-05 01:04:00,25.9,19.9,30.70,SW,216,0.0,1.0,78,0.00,,,0.00,meteohub,2013-11-05 06:04:00,
2013-11-05 01:09:00,25.9,19.9,30.70,SW,216,0.0,1.0,78,0.00,,,0.00,meteohub,2013-11-05 06:09:00,
2013-11-05 01:14:00,25.5,19.9,30.70,SW,216,0.0,1.0,79,0.00,,,0.00,meteohub,2013-11-05 06:14:00,
2013-11-05 01:19:00,25.3,20.1,30.70,SW,216,0.0,1.0,80,0.00,,,0.00,meteohub,2013-11-05 06:19:00,
2013-11-05 01:24:00,25.3,19.8,30.70,SW,216,0.0,0.0,79,0.00,,,0.00,meteohub,2013-11-05 06:24:00,
2013-11-05 01:29:00,25.7,19.8,30.70,SW,216,0.0,0.0,78,0.00,,,0.00,meteohub,2013-11-05 06:29:00,
2013-11-05 01:34:00,25.9,19.9,30.70,SW,216,0.0,0.0,78,0.00,,,0.00,meteohub,2013-11-05 06:34:00,
2013-11-05 01:39:00,25.3,19.8,30.70,SW,216,0.0,0.0,79,0.00,,,0.00,meteohub,2013-11-05 06:39:00,
2013-11-05 01:44:00,25.3,20.1,30.70,SW,216,0.0,0.0,80,0.00,,,0.00,meteohub,2013-11-05 06:44:00,
2013-11-05 01:49:00,25.2,19.6,30.70,SW,216,0.0,0.0,79,0.00,,,0.00,meteohub,2013-11-05 06:49:00,
2013-11-05 01:54:00,25.2,19.9,30.70,SW,216,0.0,0.0,80,0.00,,,0.00,meteohub,2013-11-05 06:54:00,
2013-11-05 01:59:00,25.3,20.1,30.70,SW,216,0.0,0.0,80,0.00,,,0.00,meteohub,2013-11-05 06:59:00,
2013-11-05 02:04:00,25.9,20.3,30.71,SW,216,0.0,1.0,79,0.00,,,0.00,meteohub,2013-11-05 07:04:00,
2013-11-05 02:09:00,26.1,19.8,30.71,SW,216,1.0,1.0,77,0.00,,,0.00,meteohub,2013-11-05 07:09:00,
2013-11-05 02:14:00,26.8,20.3,30.71,SW,227,1.0,2.0,76,0.00,,,0.00,meteohub,2013-11-05 07:14:00,
2013-11-05 02:20:00,27.0,20.5,30.71,SW,227,0.0,2.0,76,0.00,,,0.00,meteohub,2013-11-05 07:20:00,
2013-11-05 02:25:00,26.4,20.5,30.71,SW,227,0.0,2.0,78,0.00,,,0.00,meteohub,2013-11-05 07:25:00,
2013-11-05 02:30:00,26.1,20.5,30.71,SW,227,0.0,2.0,79,0.00,,,0.00,meteohub,2013-11-05 07:30:00,
2013-11-05 02:35:00,25.9,20.5,30.71,SW,227,0.0,0.0,80,0.00,,,0.00,meteohub,2013-11-05 07:35:00,
2013-11-05 02:40:00,25.9,20.3,30.70,SW,227,0.0,1.0,79,0.00,,,0.00,meteohub,2013-11-05 07:40:00,
2013-11-05 02:45:00,26.2,20.8,30.70,SW,227,0.0,1.0,80,0.00,,,0.00,meteohub,2013-11-05 07:45:00,
2013-11-05 02:50:00,26.4,20.8,30.70,SW,227,0.0,1.0,79,0.00,,,0.00,meteohub,2013-11-05 07:50:00,
2013-11-05 02:55:00,26.6,21.0,30.70,SW,227,0.0,1.0,79,0.00,,,0.00,meteohub,2013-11-05 07:55:00,
2013-11-05 03:00:00,26.2,20.8,30.70,SW,227,0.0,1.0,80,0.00,,,0.00,meteohub,2013-11-05 08:00:00,
2013-11-05 03:05:00,26.1,20.7,30.70,SW,227,0.0,1.0,80,0.00,,,0.00,meteohub,2013-11-05 08:05:00,
2013-11-05 03:10:00,26.1,20.7,30.69,SW,227,0.0,1.0,80,0.00,,,0.00,meteohub,2013-11-05 08:10:00,
2013-11-05 03:15:00,25.9,20.8,30.69,SW,227,1.0,0.0,81,0.00,,,0.00,meteohub,2013-11-05 08:15:00,
2013-11-05 03:20:00,25.9,20.5,30.69,SW,227,1.0,1.0,80,0.00,,,0.00,meteohub,2013-11-05 08:20:00,
2013-11-05 03:25:00,26.1,21.0,30.69,SW,227,0.0,1.0,81,0.00,,,0.00,meteohub,2013-11-05 08:25:00,
2013-11-05 03:30:00,26.1,21.0,30.69,SW,227,0.0,1.0,81,0.00,,,0.00,meteohub,2013-11-05 08:30:00,
2013-11-05 03:35:00,26.2,21.2,30.69,SW,227,0.0,1.0,81,0.00,,,0.00,meteohub,2013-11-05 08:35:00,
2013-11-05 03:40:00,26.2,21.2,30.69,SW,227,0.0,1.0,81,0.00,,,0.00,meteohub,2013-11-05 08:40:00,
2013-11-05 03:45:00,26.2,21.2,30.69,SW,227,0.0,1.0,81,0.00,,,0.00,meteohub,2013-11-05 08:45:00,
2013-11-05 03:50:00,26.2,21.2,30.69,SW,227,0.0,0.0,81,0.00,,,0.00,meteohub,2013-11-05 08:50:00,
2013-11-05 03:55:00,26.2,21.2,30.69,SW,227,0.0,0.0,81,0.00,,,0.00,meteohub,2013-11-05 08:55:00,
2013-11-05 04:00:00,26.2,21.2,30.69,SW,227,0.0,0.0,81,0.00,,,0.00,meteohub,2013-11-05 09:00:00,
2013-11-05 04:05:00,26.4,21.4,30.69,SW,227,0.0,1.0,81,0.00,,,0.00,meteohub,2013-11-05 09:05:00,
2013-11-05 04:10:00,26.4,21.4,30.69,SW,227,0.0,1.0,81,0.00,,,0.00,meteohub,2013-11-05 09:10:00,
2013-11-05 04:15:00,26.4,21.4,30.69,SW,227,0.0,1.0,81,0.00,,,0.00,meteohub,2013-11-05 09:15:00,
2013-11-05 04:20:00,26.2,21.2,30.69,SW,227,0.0,1.0,81,0.00,,,0.00,meteohub,2013-11-05 09:20:00,
2013-11-05 04:25:00,26.2,21.6,30.69,SW,227,0.0,1.0,82,0.00,,,0.00,meteohub,2013-11-05 09:25:00,
2013-11-05 04:30:00,26.1,21.4,30.69,SW,227,0.0,1.0,82,0.00,,,0.00,meteohub,2013-11-05 09:30:00,
2013-11-05 04:35:00,25.9,21.4,30.69,SW,235,1.0,2.0,83,0.00,,,0.00,meteohub,2013-11-05 09:35:00,
2013-11-05 04:40:00,26.1,21.6,30.69,SW,235,0.0,2.0,83,0.00,,,0.00,meteohub,2013-11-05 09:40:00,
2013-11-05 04:45:00,26.1,21.6,30.69,SW,235,0.0,2.0,83,0.00,,,0.00,meteohub,2013-11-05 09:45:00,
2013-11-05 04:50:00,26.1,21.6,30.69,SW,235,0.0,2.0,83,0.00,,,0.00,meteohub,2013-11-05 09:50:00,
2013-11-05 04:55:00,25.9,21.4,30.69,SW,235,0.0,0.0,83,0.00,,,0.00,meteohub,2013-11-05 09:55:00,
2013-11-05 05:00:00,25.5,21.0,30.70,SW,235,0.0,1.0,83,0.00,,,0.00,meteohub,2013-11-05 10:00:00,
2013-11-05 05:05:00,25.3,21.2,30.69,SW,235,0.0,1.0,84,0.00,,,0.00,meteohub,2013-11-05 10:05:00,
2013-11-05 05:10:00,25.3,21.2,30.70,SW,235,0.0,1.0,84,0.00,,,0.00,meteohub,2013-11-05 10:10:00,
2013-11-05 05:15:00,25.3,21.2,30.70,SW,235,0.0,1.0,84,0.00,,,0.00,meteohub,2013-11-05 10:15:00,
2013-11-05 05:20:00,25.3,21.2,30.70,SW,235,0.0,1.0,84,0.00,,,0.00,meteohub,2013-11-05 10:20:00,
2013-11-05 05:25:00,25.3,21.2,30.70,SW,235,0.0,0.0,84,0.00,,,0.00,meteohub,2013-11-05 10:25:00,
2013-11-05 05:30:00,25.2,21.4,30.71,SW,235,0.0,0.0,85,0.00,,,0.00,meteohub,2013-11-05 10:30:00,
2013-11-05 05:35:00,25.2,21.4,30.71,SW,235,0.0,0.0,85,0.00,,,0.00,meteohub,2013-11-05 10:35:00,
2013-11-05 05:40:00,25.3,21.4,30.71,SW,235,0.0,0.0,85,0.00,,,0.00,meteohub,2013-11-05 10:40:00,
2013-11-05 05:45:00,25.2,21.4,30.70,SW,235,0.0,0.0,85,0.00,,,0.00,meteohub,2013-11-05 10:45:00,
2013-11-05 05:50:00,25.0,21.4,30.70,SW,235,0.0,0.0,86,0.00,,,0.00,meteohub,2013-11-05 10:50:00,
2013-11-05 05:55:00,24.8,21.2,30.70,SW,235,0.0,0.0,86,0.00,,,0.00,meteohub,2013-11-05 10:55:00,
2013-11-05 06:01:00,25.0,21.4,30.70,SW,235,0.0,0.0,86,0.00,,,0.00,meteohub,2013-11-05 11:01:00,
2013-11-05 06:06:00,25.0,21.4,30.70,SW,235,0.0,0.0,86,0.00,,,0.00,meteohub,2013-11-05 11:06:00,
2013-11-05 06:11:00,25.0,21.4,30.70,SW,235,0.0,0.0,86,0.00,,,0.00,meteohub,2013-11-05 11:11:00,
2013-11-05 06:16:00,25.0,21.4,30.69,SW,235,0.0,0.0,86,0.00,,,0.00,meteohub,2013-11-05 11:16:00,
2013-11-05 06:20:00,25.0,21.4,30.70,SW,235,0.0,0.0,86,0.00,,,0.00,meteohub,2013-11-05 11:20:00,
2013-11-05 06:25:00,25.2,21.6,30.69,SW,235,0.0,0.0,86,0.00,,,0.00,meteohub,2013-11-05 11:25:00,
2013-11-05 06:30:00,25.2,21.6,30.69,SW,235,0.0,0.0,86,0.00,,,0.00,meteohub,2013-11-05 11:30:00,
2013-11-05 06:35:00,25.2,21.6,30.70,SW,235,0.0,0.0,86,0.00,,,0.00,meteohub,2013-11-05 11:35:00,
2013-11-05 06:40:00,25.2,21.6,30.70,SW,235,0.0,0.0,86,0.00,,,0.00,meteohub,2013-11-05 11:40:00,
2013-11-05 06:45:00,25.3,21.7,30.71,SW,235,0.0,0.0,86,0.00,,,0.00,meteohub,2013-11-05 11:45:00,
2013-11-05 06:50:00,25.5,21.6,30.71,SW,235,0.0,0.0,85,0.00,,,0.00,meteohub,2013-11-05 11:50:00,
2013-11-05 06:55:00,25.9,21.9,30.71,SW,235,0.0,0.0,85,0.00,,,0.00,meteohub,2013-11-05 11:55:00,
2013-11-05 07:00:00,26.1,22.1,30.71,SW,235,0.0,0.0,85,0.00,,,0.00,meteohub,2013-11-05 12:00:00,
2013-11-05 07:05:00,26.2,22.3,30.71,SW,235,0.0,0.0,85,0.00,,,0.00,meteohub,2013-11-05 12:05:00,
2013-11-05 07:10:00,26.6,22.6,30.71,SW,235,0.0,0.0,85,0.00,,,0.00,meteohub,2013-11-05 12:10:00,
2013-11-05 07:15:00,27.0,22.8,30.71,SW,235,0.0,0.0,84,0.00,,,0.00,meteohub,2013-11-05 12:15:00,
2013-11-05 07:20:00,27.0,22.8,30.71,SW,235,0.0,0.0,84,0.00,,,0.00,meteohub,2013-11-05 12:20:00,
2013-11-05 07:25:00,27.1,23.0,30.71,SW,235,0.0,0.0,84,0.00,,,0.00,meteohub,2013-11-05 12:25:00,
2013-11-05 07:30:00,27.3,23.2,30.71,SW,235,0.0,0.0,84,0.00,,,0.00,meteohub,2013-11-05 12:30:00,
2013-11-05 07:35:00,27.3,22.8,30.71,SW,235,0.0,0.0,83,0.00,,,0.00,meteohub,2013-11-05 12:35:00,
2013-11-05 07:40:00,27.5,23.4,30.71,SW,235,0.0,0.0,84,0.00,,,0.00,meteohub,2013-11-05 12:40:00,
2013-11-05 07:45:00,27.7,23.2,30.72,SW,235,0.0,0.0,83,0.00,,,0.00,meteohub,2013-11-05 12:45:00,
2013-11-05 07:50:00,27.7,23.2,30.71,SW,235,0.0,0.0,83,0.00,,,0.00,meteohub,2013-11-05 12:50:00,
2013-11-05 07:55:00,27.9,23.4,30.71,SW,235,0.0,0.0,83,0.00,,,0.00,meteohub,2013-11-05 12:55:00,
2013-11-05 08:00:00,28.2,23.7,30.71,SW,235,0.0,0.0,83,0.00,,,0.00,meteohub,2013-11-05 13:00:00,
2013-11-05 08:05:00,28.8,23.9,30.71,SSW,204,2.0,2.0,82,0.00,,,0.00,meteohub,2013-11-05 13:05:00,
2013-11-05 08:10:00,29.1,23.7,30.72,ESE,107,2.0,3.0,80,0.00,,,0.00,meteohub,2013-11-05 13:10:00,
2013-11-05 08:15:00,29.5,24.1,30.71,ESE,105,0.0,3.0,80,0.00,,,0.00,meteohub,2013-11-05 13:15:00,
2013-11-05 08:20:00,29.7,23.9,30.71,ESE,105,1.0,3.0,79,0.00,,,0.00,meteohub,2013-11-05 13:20:00,
2013-11-05 08:25:00,30.2,24.4,30.71,ESE,105,1.0,2.0,79,0.00,,,0.00,meteohub,2013-11-05 13:25:00,
2013-11-05 08:30:00,30.7,24.4,30.71,ESE,102,1.0,2.0,77,0.00,,,0.00,meteohub,2013-11-05 13:30:00,
2013-11-05 08:35:00,32.0,25.3,30.71,ESE,102,1.0,3.0,76,0.00,,,0.00,meteohub,2013-11-05 13:35:00,
2013-11-05 08:40:00,32.2,24.8,30.71,ESE,103,1.0,3.0,74,0.00,,,0.00,meteohub,2013-11-05 13:40:00,
2013-11-05 08:45:00,32.4,24.6,30.71,East,95,1.0,3.0,73,0.00,,,0.00,meteohub,2013-11-05 13:45:00,
2013-11-05 08:50:00,32.7,24.6,30.71,ESE,102,1.0,3.0,72,0.00,,,0.00,meteohub,2013-11-05 13:50:00,
2013-11-05 08:55:00,33.3,24.8,30.70,ESE,103,0.0,3.0,71,0.00,,,0.00,meteohub,2013-11-05 13:55:00,
2013-11-05 09:00:00,33.3,24.8,30.70,East,100,2.0,3.0,71,0.00,,,0.00,meteohub,2013-11-05 14:00:00,
2013-11-05 09:05:00,33.4,24.8,30.71,ESE,104,1.0,4.0,70,0.00,,,0.00,meteohub,2013-11-05 14:05:00,
2013-11-05 09:10:00,34.2,24.6,30.70,East,101,1.0,4.0,68,0.00,,,0.00,meteohub,2013-11-05 14:10:00,
2013-11-05 09:15:00,34.9,24.6,30.71,East,94,2.0,3.0,66,0.00,,,0.00,meteohub,2013-11-05 14:15:00,
2013-11-05 09:20:00,35.2,24.6,30.71,ENE,77,1.0,3.0,65,0.00,,,0.00,meteohub,2013-11-05 14:20:00,
2013-11-05 09:25:00,36.0,25.3,30.71,ESE,121,0.0,3.0,65,0.00,,,0.00,meteohub,2013-11-05 14:25:00,
2013-11-05 09:30:00,36.1,24.8,30.70,SE,131,0.0,2.0,63,0.00,,,0.00,meteohub,2013-11-05 14:30:00,
2013-11-05 09:35:00,36.1,25.2,30.70,ESE,114,1.0,3.0,64,0.00,,,0.00,meteohub,2013-11-05 14:35:00,
2013-11-05 09:40:00,36.3,25.3,30.70,ESE,107,0.0,3.0,64,0.00,,,0.00,meteohub,2013-11-05 14:40:00,
2013-11-05 09:45:00,36.7,25.3,30.70,ESE,117,2.0,3.0,63,0.00,,,0.00,meteohub,2013-11-05 14:45:00,
2013-11-05 09:50:00,37.9,26.1,30.69,SSW,195,1.0,4.0,62,0.00,,,0.00,meteohub,2013-11-05 14:50:00,
2013-11-05 09:55:00,38.1,25.9,30.69,SE,134,2.0,4.0,61,0.00,,,0.00,meteohub,2013-11-05 14:55:00,
2013-11-05 10:00:00,38.8,26.1,30.69,East,101,2.0,3.0,60,0.00,,,0.00,meteohub,2013-11-05 15:00:00,
2013-11-05 10:05:00,39.0,26.2,30.69,ESE,106,2.0,5.0,60,0.00,,,0.00,meteohub,2013-11-05 15:05:00,
2013-11-05 10:10:00,39.0,25.9,30.68,West,281,1.0,5.0,59,0.00,,,0.00,meteohub,2013-11-05 15:10:00,
2013-11-05 10:15:00,39.7,26.6,30.69,East,96,2.0,5.0,59,0.00,,,0.00,meteohub,2013-11-05 15:15:00,
2013-11-05 10:20:00,39.7,25.7,30.69,ENE,65,2.0,8.0,57,0.00,,,0.00,meteohub,2013-11-05 15:20:00,
2013-11-05 10:25:00,40.3,26.2,30.69,ESE,122,2.0,8.0,57,0.00,,,0.00,meteohub,2013-11-05 15:25:00,
2013-11-05 10:30:00,40.3,26.2,30.68,SE,138,2.0,8.0,57,0.00,,,0.00,meteohub,2013-11-05 15:30:00,
2013-11-05 10:35:00,40.6,26.6,30.68,ESE,104,1.0,7.0,57,0.00,,,0.00,meteohub,2013-11-05 15:35:00,
2013-11-05 10:40:00,40.6,26.6,30.68,NE,50,2.0,7.0,57,0.00,,,0.00,meteohub,2013-11-05 15:40:00,
2013-11-05 10:45:00,41.2,27.1,30.68,WSW,237,1.0,7.0,57,0.00,,,0.00,meteohub,2013-11-05 15:45:00,
2013-11-05 10:50:00,41.2,26.6,30.68,East,90,4.0,6.0,56,0.00,,,0.00,meteohub,2013-11-05 15:50:00,
2013-11-05 10:55:00,42.1,27.5,30.68,SE,146,2.0,5.0,56,0.00,,,0.00,meteohub,2013-11-05 15:55:00,
2013-11-05 11:00:00,42.1,26.6,30.67,East,84,2.0,6.0,54,0.00,,,0.00,meteohub,2013-11-05 16:00:00,
2013-11-05 11:05:00,42.1,26.6,30.67,East,86,1.0,6.0,54,0.00,,,0.00,meteohub,2013-11-05 16:05:00,
2013-11-05 11:10:00,42.4,27.0,30.67,SE,128,1.0,6.0,54,0.00,,,0.00,meteohub,2013-11-05 16:10:00,
2013-11-05 11:15:00,43.5,27.1,30.67,SW,234,1.0,6.0,52,0.00,,,0.00,meteohub,2013-11-05 16:15:00,
2013-11-05 11:20:00,43.7,27.1,30.67,SE,133,1.0,6.0,52,0.00,,,0.00,meteohub,2013-11-05 16:20:00,
2013-11-05 11:25:00,43.7,27.1,30.67,South,173,1.0,6.0,52,0.00,,,0.00,meteohub,2013-11-05 16:25:00,
2013-11-05 11:30:00,44.2,27.7,30.66,SE,138,2.0,3.0,52,0.00,,,0.00,meteohub,2013-11-05 16:30:00,
2013-11-05 11:35:00,44.4,27.0,30.66,ENE,74,2.0,3.0,50,0.00,,,0.00,meteohub,2013-11-05 16:35:00,
2013-11-05 11:40:00,43.9,27.0,30.66,ENE,67,2.0,3.0,51,0.00,,,0.00,meteohub,2013-11-05 16:40:00,
2013-11-05 11:45:00,44.8,27.7,30.66,SE,126,1.0,5.0,51,0.00,,,0.00,meteohub,2013-11-05 16:45:00,
2013-11-05 11:50:00,45.3,27.3,30.65,SW,219,1.0,5.0,49,0.00,,,0.00,meteohub,2013-11-05 16:50:00,
2013-11-05 11:55:00,45.0,27.5,30.65,ESE,108,2.0,5.0,50,0.00,,,0.00,meteohub,2013-11-05 16:55:00,
2013-11-05 12:00:00,44.4,27.0,30.65,SE,135,0.0,5.0,50,0.00,,,0.00,meteohub,2013-11-05 17:00:00,
2013-11-05 12:05:00,44.4,27.5,30.65,SSE,155,0.0,5.0,51,0.00,,,0.00,meteohub,2013-11-05 17:05:00,
2013-11-05 12:10:00,45.0,27.5,30.64,East,86,4.0,5.0,50,0.00,,,0.00,meteohub,2013-11-05 17:10:00,
2013-11-05 12:15:00,44.8,27.7,30.64,ESE,113,1.0,5.0,51,0.00,,,0.00,meteohub,2013-11-05 17:15:00,
2013-11-05 12:20:00,45.5,27.9,30.64,SW,226,0.0,5.0,50,0.00,,,0.00,meteohub,2013-11-05 17:20:00,
2013-11-05 12:25:00,45.7,28.0,30.64,North,5,1.0,5.0,50,0.00,,,0.00,meteohub,2013-11-05 17:25:00,
2013-11-05 12:30:00,45.9,28.2,30.64,SW,231,0.0,3.0,50,0.00,,,0.00,meteohub,2013-11-05 17:30:00,
2013-11-05 12:35:00,46.0,28.4,30.64,ESE,119,1.0,3.0,50,0.00,,,0.00,meteohub,2013-11-05 17:35:00,
2013-11-05 12:40:00,45.9,28.8,30.63,East,99,3.0,3.0,51,0.00,,,0.00,meteohub,2013-11-05 17:40:00,
2013-11-05 12:45:00,46.8,29.7,30.63,WSW,254,1.0,4.0,51,0.00,,,0.00,meteohub,2013-11-05 17:45:00,
2013-11-05 12:50:00,46.9,29.3,30.63,West,265,3.0,7.0,50,0.00,,,0.00,meteohub,2013-11-05 17:50:00,
2013-11-05 12:55:00,46.9,29.3,30.62,SSW,194,2.0,7.0,50,0.00,,,0.00,meteohub,2013-11-05 17:55:00,
2013-11-05 13:00:00,46.0,28.9,30.62,WSW,237,4.0,7.0,51,0.00,,,0.00,meteohub,2013-11-05 18:00:00,
2013-11-05 13:05:00,46.8,29.7,30.61,WSW,237,1.0,6.0,51,0.00,,,0.00,meteohub,2013-11-05 18:05:00,
2013-11-05 13:10:00,47.1,30.4,30.61,NNW,342,0.0,6.0,52,0.00,,,0.00,meteohub,2013-11-05 18:10:00,
2013-11-05 13:15:00,47.5,30.2,30.61,ENE,65,1.0,8.0,51,0.00,,,0.00,meteohub,2013-11-05 18:15:00,
2013-11-05 13:20:00,47.7,30.0,30.61,SSW,207,2.0,8.0,50,0.00,,,0.00,meteohub,2013-11-05 18:20:00,
2013-11-05 13:25:00,47.5,29.8,30.61,SSW,206,4.0,8.0,50,0.00,,,0.00,meteohub,2013-11-05 18:25:00,
2013-11-05 13:30:00,47.5,29.8,30.61,West,279,1.0,6.0,50,0.00,,,0.00,meteohub,2013-11-05 18:30:00,
2013-11-05 13:35:00,47.7,29.5,30.61,SW,219,1.0,6.0,49,0.00,,,0.00,meteohub,2013-11-05 18:35:00,
2013-11-05 13:40:00,47.7,29.5,30.60,NNW,329,1.0,6.0,49,0.00,,,0.00,meteohub,2013-11-05 18:40:00,
2013-11-05 13:45:00,47.8,29.1,30.60,West,279,2.0,3.0,48,0.00,,,0.00,meteohub,2013-11-05 18:45:00,
2013-11-05 13:50:00,47.8,29.1,30.60,WSW,246,1.0,7.0,48,0.00,,,0.00,meteohub,2013-11-05 18:50:00,
2013-11-05 13:55:00,48.2,29.5,30.60,WNW,292,1.0,7.0,48,0.00,,,0.00,meteohub,2013-11-05 18:55:00,
2013-11-05 14:00:00,47.8,29.7,30.59,WNW,287,7.0,7.0,49,0.00,,,0.00,meteohub,2013-11-05 19:00:00,
2013-11-05 14:05:00,47.8,29.1,30.59,ENE,58,0.0,8.0,48,0.00,,,0.00,meteohub,2013-11-05 19:05:00,
2013-11-05 14:10:00,47.8,29.1,30.59,West,261,1.0,8.0,48,0.00,,,0.00,meteohub,2013-11-05 19:10:00,
2013-11-05 14:15:00,47.8,29.1,30.59,South,189,2.0,8.0,48,0.00,,,0.00,meteohub,2013-11-05 19:15:00,
2013-11-05 14:20:00,47.8,29.1,30.59,West,281,1.0,4.0,48,0.00,,,0.00,meteohub,2013-11-05 19:20:00,
2013-11-05 14:25:00,47.8,29.1,30.58,NW,317,0.0,7.0,48,0.00,,,0.00,meteohub,2013-11-05 19:25:00,
2013-11-05 14:30:00,47.8,29.1,30.58,SSE,150,0.0,7.0,48,0.00,,,0.00,meteohub,2013-11-05 19:30:00,
2013-11-05 14:35:00,47.8,29.1,30.58,WNW,294,2.0,3.0,48,0.00,,,0.00,meteohub,2013-11-05 19:35:00,
2013-11-05 14:40:00,47.7,28.9,30.58,SSW,207,1.0,3.0,48,0.00,,,0.00,meteohub,2013-11-05 19:40:00,
2013-11-05 14:45:00,48.2,28.9,30.58,SW,227,0.0,3.0,47,0.00,,,0.00,meteohub,2013-11-05 19:45:00,
2013-11-05 14:50:00,48.2,28.9,30.58,West,265,3.0,3.0,47,0.00,,,0.00,meteohub,2013-11-05 19:50:00,
2013-11-05 14:55:00,47.8,28.6,30.58,West,279,2.0,6.0,47,0.00,,,0.00,meteohub,2013-11-05 19:55:00,
2013-11-05 15:00:00,47.8,29.1,30.58,WSW,249,0.0,6.0,48,0.00,,,0.00,meteohub,2013-11-05 20:00:00,
2013-11-05 15:05:00,47.5,28.8,30.58,NNE,12,2.0,6.0,48,0.00,,,0.00,meteohub,2013-11-05 20:05:00,
2013-11-05 15:10:00,47.5,29.3,30.58,East,79,0.0,4.0,49,0.00,,,0.00,meteohub,2013-11-05 20:10:00,
2013-11-05 15:15:00,47.1,29.5,30.58,SSE,157,0.0,3.0,50,0.00,,,0.00,meteohub,2013-11-05 20:15:00,
2013-11-05 15:20:00,47.1,28.9,30.58,SSE,157,1.0,3.0,49,0.00,,,0.00,meteohub,2013-11-05 20:20:00,
2013-11-05 15:25:00,47.1,28.9,30.58,NW,309,1.0,2.0,49,0.00,,,0.00,meteohub,2013-11-05 20:25:00,
2013-11-05 15:30:00,47.5,29.3,30.58,NNW,335,0.0,3.0,49,0.00,,,0.00,meteohub,2013-11-05 20:30:00,
2013-11-05 15:35:00,47.1,28.9,30.57,NNW,335,0.0,3.0,49,0.00,,,0.00,meteohub,2013-11-05 20:35:00,
2013-11-05 15:41:00,47.1,28.9,30.57,NNW,335,0.0,3.0,49,0.00,,,0.00,meteohub,2013-11-05 20:41:00,
2013-11-05 15:45:00,46.9,28.8,30.57,SE,130,1.0,3.0,49,0.00,,,0.00,meteohub,2013-11-05 20:45:00,
2013-11-05 15:51:00,46.9,28.8,30.57,SW,215,0.0,3.0,49,0.00,,,0.00,meteohub,2013-11-05 20:51:00,
2013-11-05 15:56:00,46.9,28.8,30.57,SW,215,1.0,3.0,49,0.00,,,0.00,meteohub,2013-11-05 20:56:00,
2013-11-05 16:01:00,46.6,28.9,30.57,SW,215,2.0,2.0,50,0.00,,,0.00,meteohub,2013-11-05 21:01:00,
2013-11-05 16:06:00,46.4,29.3,30.57,West,261,1.0,5.0,51,0.00,,,0.00,meteohub,2013-11-05 21:06:00,
2013-11-05 16:11:00,46.0,29.5,30.57,WSW,257,0.0,5.0,52,0.00,,,0.00,meteohub,2013-11-05 21:11:00,
2013-11-05 16:16:00,45.7,29.5,30.57,West,263,0.0,5.0,53,0.00,,,0.00,meteohub,2013-11-05 21:16:00,
2013-11-05 16:21:00,45.1,29.5,30.56,West,263,0.0,3.0,54,0.00,,,0.00,meteohub,2013-11-05 21:21:00,
2013-11-05 16:26:00,44.4,29.7,30.56,West,263,1.0,3.0,56,0.00,,,0.00,meteohub,2013-11-05 21:26:00,
2013-11-05 16:31:00,44.2,29.5,30.56,West,263,0.0,3.0,56,0.00,,,0.00,meteohub,2013-11-05 21:31:00,
2013-11-05 16:36:00,43.9,29.1,30.56,West,263,0.0,2.0,56,0.00,,,0.00,meteohub,2013-11-05 21:36:00,
2013-11-05 16:41:00,43.9,29.7,30.56,West,263,0.0,2.0,57,0.00,,,0.00,meteohub,2013-11-05 21:41:00,
2013-11-05 16:46:00,43.3,29.1,30.56,West,263,0.0,1.0,57,0.00,,,0.00,meteohub,2013-11-05 21:46:00,
2013-11-05 16:51:00,43.3,29.5,30.56,West,263,1.0,1.0,58,0.00,,,0.00,meteohub,2013-11-05 21:51:00,
2013-11-05 16:56:00,43.3,29.5,30.56,West,263,0.0,1.0,58,0.00,,,0.00,meteohub,2013-11-05 21:56:00,
2013-11-05 17:01:00,43.2,29.8,30.56,West,263,0.0,1.0,59,0.00,,,0.00,meteohub,2013-11-05 22:01:00,
2013-11-05 17:06:00,43.0,29.7,30.57,West,263,0.0,1.0,59,0.00,,,0.00,meteohub,2013-11-05 22:06:00,
2013-11-05 17:11:00,43.0,30.0,30.56,West,263,0.0,1.0,60,0.00,,,0.00,meteohub,2013-11-05 22:11:00,
2013-11-05 17:16:00,43.2,30.2,30.56,West,263,0.0,1.0,60,0.00,,,0.00,meteohub,2013-11-05 22:16:00,
2013-11-05 17:21:00,43.2,30.6,30.56,West,263,0.0,1.0,61,0.00,,,0.00,meteohub,2013-11-05 22:21:00,
2013-11-05 17:26:00,43.2,30.6,30.56,West,263,0.0,1.0,61,0.00,,,0.00,meteohub,2013-11-05 22:26:00,
2013-11-05 17:31:00,43.0,30.4,30.56,West,263,0.0,1.0,61,0.00,,,0.00,meteohub,2013-11-05 22:31:00,
2013-11-05 17:36:00,43.0,30.4,30.56,West,263,0.0,1.0,61,0.00,,,0.00,meteohub,2013-11-05 22:36:00,
2013-11-05 17:41:00,42.8,30.7,30.56,West,263,0.0,1.0,62,0.00,,,0.00,meteohub,2013-11-05 22:41:00,
2013-11-05 17:46:00,42.6,30.6,30.57,West,263,0.0,1.0,62,0.00,,,0.00,meteohub,2013-11-05 22:46:00,
2013-11-05 17:51:00,43.0,30.9,30.57,West,263,0.0,1.0,62,0.00,,,0.00,meteohub,2013-11-05 22:51:00,
2013-11-05 17:56:00,43.0,30.4,30.56,West,263,0.0,1.0,61,0.00,,,0.00,meteohub,2013-11-05 22:56:00,
2013-11-05 18:01:00,43.2,30.6,30.56,West,263,0.0,1.0,61,0.00,,,0.00,meteohub,2013-11-05 23:01:00,
2013-11-05 18:07:00,43.3,30.7,30.56,West,263,0.0,1.0,61,0.00,,,0.00,meteohub,2013-11-05 23:07:00,
2013-11-05 18:12:00,43.3,30.7,30.56,West,263,1.0,1.0,61,0.00,,,0.00,meteohub,2013-11-05 23:12:00,
2013-11-05 18:17:00,43.2,30.6,30.56,West,263,1.0,1.0,61,0.00,,,0.00,meteohub,2013-11-05 23:17:00,
2013-11-05 18:22:00,43.0,30.9,30.56,West,263,0.0,1.0,62,0.00,,,0.00,meteohub,2013-11-05 23:22:00,
2013-11-05 18:27:00,42.4,30.4,30.57,West,263,0.0,1.0,62,0.00,,,0.00,meteohub,2013-11-05 23:27:00,
2013-11-05 18:32:00,42.4,30.7,30.56,West,263,0.0,1.0,63,0.00,,,0.00,meteohub,2013-11-05 23:32:00,
2013-11-05 18:37:00,42.3,30.9,30.56,West,263,1.0,1.0,64,0.00,,,0.00,meteohub,2013-11-05 23:37:00,
2013-11-05 18:42:00,42.3,30.9,30.56,West,263,0.0,1.0,64,0.00,,,0.00,meteohub,2013-11-05 23:42:00,
2013-11-05 18:47:00,42.1,30.7,30.56,West,263,0.0,1.0,64,0.00,,,0.00,meteohub,2013-11-05 23:47:00,
2013-11-05 18:52:00,42.1,30.7,30.56,West,263,0.0,1.0,64,0.00,,,0.00,meteohub,2013-11-05 23:52:00,
2013-11-05 18:57:00,42.1,30.7,30.56,West,263,0.0,1.0,64,0.00,,,0.00,meteohub,2013-11-05 23:57:00,
2013-11-05 19:02:00,42.1,30.7,30.56,West,263,1.0,1.0,64,0.00,,,0.00,meteohub,2013-11-06 00:02:00,
2013-11-05 19:07:00,41.4,31.3,30.56,South,178,0.0,2.0,67,0.00,,,0.00,meteohub,2013-11-06 00:07:00,
2013-11-05 19:12:00,40.6,30.9,30.57,South,184,1.0,2.0,68,0.00,,,0.00,meteohub,2013-11-06 00:12:00,
2013-11-05 19:17:00,40.6,30.6,30.56,South,184,0.0,2.0,67,0.00,,,0.00,meteohub,2013-11-06 00:17:00,
2013-11-05 19:22:00,40.8,30.7,30.56,WNW,294,1.0,2.0,67,0.00,,,0.00,meteohub,2013-11-06 00:22:00,
2013-11-05 19:27:00,40.8,30.7,30.57,West,262,1.0,3.0,67,0.00,,,0.00,meteohub,2013-11-06 00:27:00,
2013-11-05 19:32:00,40.8,30.7,30.56,SW,229,1.0,3.0,67,0.00,,,0.00,meteohub,2013-11-06 00:32:00,
2013-11-05 19:37:00,40.8,30.7,30.57,SW,229,0.0,2.0,67,0.00,,,0.00,meteohub,2013-11-06 00:37:00,
2013-11-05 19:42:00,40.6,30.6,30.56,SW,229,0.0,2.0,67,0.00,,,0.00,meteohub,2013-11-06 00:42:00,
2013-11-05 19:47:00,40.6,30.6,30.56,SW,229,0.0,2.0,67,0.00,,,0.00,meteohub,2013-11-06 00:47:00,
2013-11-05 19:52:00,40.5,30.7,30.56,SW,229,0.0,1.0,68,0.00,,,0.00,meteohub,2013-11-06 00:52:00,
2013-11-05 19:57:00,39.9,30.9,30.56,SW,229,0.0,1.0,70,0.00,,,0.00,meteohub,2013-11-06 00:57:00,
2013-11-05 20:02:00,39.6,30.6,30.56,SW,229,1.0,1.0,70,0.00,,,0.00,meteohub,2013-11-06 01:02:00,
2013-11-05 20:07:00,39.6,30.9,30.56,SW,229,0.0,1.0,71,0.00,,,0.00,meteohub,2013-11-06 01:07:00,
2013-11-05 20:12:00,39.7,30.7,30.56,SW,229,0.0,1.0,70,0.00,,,0.00,meteohub,2013-11-06 01:12:00,
2013-11-05 20:17:00,39.7,31.1,30.56,SW,229,0.0,1.0,71,0.00,,,0.00,meteohub,2013-11-06 01:17:00,
2013-11-05 20:22:00,39.7,31.1,30.56,SW,229,0.0,1.0,71,0.00,,,0.00,meteohub,2013-11-06 01:22:00,
2013-11-05 20:27:00,39.9,30.9,30.56,SW,229,0.0,1.0,70,0.00,,,0.00,meteohub,2013-11-06 01:27:00,
2013-11-05 20:32:00,39.9,31.3,30.56,SW,229,0.0,1.0,71,0.00,,,0.00,meteohub,2013-11-06 01:32:00,
2013-11-05 20:37:00,39.9,31.3,30.56,SW,229,0.0,1.0,71,0.00,,,0.00,meteohub,2013-11-06 01:37:00,
2013-11-05 20:42:00,39.7,31.1,30.55,SW,229,0.0,1.0,71,0.00,,,0.00,meteohub,2013-11-06 01:42:00,
2013-11-05 20:47:00,39.6,30.9,30.56,SW,229,0.0,1.0,71,0.00,,,0.00,meteohub,2013-11-06 01:47:00,
2013-11-05 20:52:00,39.6,30.9,30.56,SW,229,0.0,0.0,71,0.00,,,0.00,meteohub,2013-11-06 01:52:00,
2013-11-05 20:57:00,39.6,30.6,30.56,SW,229,0.0,0.0,70,0.00,,,0.00,meteohub,2013-11-06 01:57:00,
2013-11-05 21:02:00,39.6,30.9,30.55,SW,229,0.0,0.0,71,0.00,,,0.00,meteohub,2013-11-06 02:02:00,
2013-11-05 21:07:00,39.6,30.6,30.55,SW,229,0.0,1.0,70,0.00,,,0.00,meteohub,2013-11-06 02:07:00,
2013-11-05 21:12:00,39.4,30.7,30.54,SW,229,0.0,1.0,71,0.00,,,0.00,meteohub,2013-11-06 02:12:00,
2013-11-05 21:17:00,39.4,30.7,30.54,SW,229,0.0,1.0,71,0.00,,,0.00,meteohub,2013-11-06 02:17:00,
2013-11-05 21:22:00,39.6,30.9,30.54,WSW,238,0.0,1.0,71,0.00,,,0.00,meteohub,2013-11-06 02:22:00,
2013-11-05 21:27:00,39.4,31.1,30.54,WSW,238,0.0,1.0,72,0.00,,,0.00,meteohub,2013-11-06 02:27:00,
2013-11-05 21:32:00,39.0,30.7,30.55,WSW,238,0.0,1.0,72,0.00,,,0.00,meteohub,2013-11-06 02:32:00,
2013-11-05 21:37:00,38.8,30.9,30.54,WSW,238,0.0,1.0,73,0.00,,,0.00,meteohub,2013-11-06 02:37:00,
2013-11-05 21:42:00,38.5,30.9,30.54,WSW,238,0.0,1.0,74,0.00,,,0.00,meteohub,2013-11-06 02:42:00,
2013-11-05 21:47:00,38.8,31.3,30.54,WSW,238,0.0,1.0,74,0.00,,,0.00,meteohub,2013-11-06 02:47:00,
2013-11-05 21:52:00,38.8,31.3,30.54,WSW,238,0.0,1.0,74,0.00,,,0.00,meteohub,2013-11-06 02:52:00,
2013-11-05 21:57:00,38.8,31.3,30.54,WSW,238,0.0,1.0,74,0.00,,,0.00,meteohub,2013-11-06 02:57:00,
2013-11-05 22:02:00,38.8,31.3,30.54,WSW,238,0.0,1.0,74,0.00,,,0.00,meteohub,2013-11-06 03:02:00,
2013-11-05 22:07:00,38.8,31.3,30.53,WSW,238,0.0,1.0,74,0.00,,,0.00,meteohub,2013-11-06 03:07:00,
2013-11-05 22:12:00,38.7,31.1,30.53,WSW,238,0.0,1.0,74,0.00,,,0.00,meteohub,2013-11-06 03:12:00,
2013-11-05 22:17:00,38.5,30.9,30.53,WSW,238,0.0,1.0,74,0.00,,,0.00,meteohub,2013-11-06 03:17:00,
2013-11-05 22:22:00,38.3,31.1,30.53,WSW,238,0.0,1.0,75,0.00,,,0.00,meteohub,2013-11-06 03:22:00,
2013-11-05 22:27:00,38.1,30.9,30.53,WSW,238,0.0,0.0,75,0.00,,,0.00,meteohub,2013-11-06 03:27:00,
2013-11-05 22:32:00,38.1,31.3,30.53,WSW,238,0.0,0.0,76,0.00,,,0.00,meteohub,2013-11-06 03:32:00,
2013-11-05 22:37:00,38.5,31.6,30.53,WSW,238,0.0,1.0,76,0.00,,,0.00,meteohub,2013-11-06 03:37:00,
2013-11-05 22:42:00,38.5,31.3,30.53,WSW,238,0.0,1.0,75,0.00,,,0.00,meteohub,2013-11-06 03:42:00,
2013-11-05 22:47:00,38.3,31.1,30.53,WSW,238,0.0,1.0,75,0.00,,,0.00,meteohub,2013-11-06 03:47:00,
2013-11-05 22:52:00,38.3,31.1,30.53,WSW,238,0.0,1.0,75,0.00,,,0.00,meteohub,2013-11-06 03:52:00,
2013-11-05 22:57:00,38.1,30.9,30.53,WSW,238,0.0,1.0,75,0.00,,,0.00,meteohub,2013-11-06 03:57:00,
2013-11-05 23:02:00,37.9,31.1,30.53,WSW,238,0.0,1.0,76,0.00,,,0.00,meteohub,2013-11-06 04:02:00,
2013-11-05 23:07:00,37.9,31.1,30.53,WSW,238,0.0,1.0,76,0.00,,,0.00,meteohub,2013-11-06 04:07:00,
2013-11-05 23:12:00,38.1,31.6,30.52,WSW,238,1.0,1.0,77,0.00,,,0.00,meteohub,2013-11-06 04:12:00,
2013-11-05 23:17:00,38.1,31.6,30.52,WSW,238,0.0,2.0,77,0.00,,,0.00,meteohub,2013-11-06 04:17:00,
2013-11-05 23:22:00,38.1,31.6,30.51,WSW,238,1.0,2.0,77,0.00,,,0.00,meteohub,2013-11-06 04:22:00,
2013-11-05 23:27:00,37.9,31.5,30.51,WSW,238,1.0,2.0,77,0.00,,,0.00,meteohub,2013-11-06 04:27:00,
2013-11-05 23:32:00,38.5,32.2,30.51,WSW,238,1.0,2.0,78,0.00,,,0.00,meteohub,2013-11-06 04:32:00,
2013-11-05 23:37:00,38.5,32.2,30.51,WSW,257,0.0,2.0,78,0.00,,,0.00,meteohub,2013-11-06 04:37:00,
2013-11-05 23:42:00,38.5,32.2,30.51,WSW,257,1.0,2.0,78,0.00,,,0.00,meteohub,2013-11-06 04:42:00,
2013-11-05 23:47:00,38.3,32.0,30.51,WSW,257,0.0,2.0,78,0.00,,,0.00,meteohub,2013-11-06 04:47:00,
2013-11-05 23:52:00,38.3,32.4,30.51,WSW,257,0.0,2.0,79,0.00,,,0.00,meteohub,2013-11-06 04:52:00,
2013-11-05 23:57:00,38.1,32.2,30.51,WSW,257,0.0,2.0,79,0.00,,,0.00,meteohub,2013-11-06 04:57:00,